Ontario, OR

5:05 AM MST on January 18, 2018 (GMT -0700)
Ontario Municipal

Weather History for KONO - June, 2013

Change the Weather History Date:

Thursday, June 13, 2013

  Actual Average Record
Temperature  
Mean Temperature 64 °F 67 °F  
Max Temperature 76 °F 83 °F 101 °F (1987)
Min Temperature 51 °F 52 °F 36 °F (1952)
Degree Days  
Heating Degree Days 1 2  
Month to date heating degree days 2 33  
Since 1 June heating degree days 2 33  
Since 1 July heating degree days 5653 5983  
Cooling Degree Days 0 4  
Month to date cooling degree days 88 40  
Year to date cooling degree days 135 76  
Since 1 June cooling degree days 88 40  
Growing Degree Days 14 (Base 50)    
Moisture  
Dew Point 37 °F    
Average Humidity 34    
Maximum Humidity 50    
Minimum Humidity 18    
Precipitation  
Precipitation 0.05 in 0.02 in 0.87 in (1992)
Month to date precipitation 0.05 0.39  
Year to date precipitation 1.99 5.46  
Sea Level Pressure  
Sea Level Pressure 30.01 in    
Wind  
Wind Speed 14 mph (WNW)    
Max Wind Speed 31 mph    
Max Gust Speed 37 mph    
Visibility 10 miles    
Events Rain , Thunderstorm    
T = Trace of Precipitation, MM = Missing Value Source: NWS Daily Summary

Daily Weather History Graph

Daily Weather History Graph

Search for Another Location

Airport or City:

Trip Planner

Search our weather history database for the weather conditions in past years. The results will help you decide how hot, cold, wet, or windy it might be!

Date:

Astronomy

Jun. 13, 2013 Rise Set
Actual Time 6:04 AM MDT 9:32 PM MDT
Civil Twilight 5:28 AM MDT 10:08 PM MDT
Nautical Twilight 4:40 AM MDT 10:55 PM MDT
Astronomical Twilight 3:40 AM MDT 11:56 PM MDT
Moon 10:53 AM MDT (6/13) 12:02 AM MDT (6/13)
Length of Visible Light 16h 40m
Length of Day
15h 27m
Waxing Crescent, 22% of the Moon is Illuminated
Jun 13
Waxing Crescent
Jun 16
First Quarter
Jun 23
Full
Jun 29
Last Quarter
Jul 8
New

Hourly Weather History & Observations

Time (MDT) Temp. Dew Point Humidity Pressure Visibility Wind Dir Wind Speed Gust Speed Precip Events Conditions
12:53 AM 64.0 °F 33.1 °F 31% 29.93 in 10.0 mi NNW 17.3 mph 26.5 mph N/A   Mostly Cloudy
1:53 AM 61.0 °F 37.9 °F 42% 29.94 in 10.0 mi North 5.8 mph - N/A   Partly Cloudy
2:53 AM 60.1 °F 35.1 °F 39% 29.95 in 10.0 mi NNW 10.4 mph - N/A   Overcast
3:53 AM 54.0 °F 44.1 °F 69% 29.95 in 7.0 mi NW 9.2 mph - 0.02 in Rain Light Rain
4:53 AM 54.0 °F 39.9 °F 59% 29.94 in 10.0 mi NW 11.5 mph - 0.00 in   Mostly Cloudy
5:53 AM 54.0 °F 35.1 °F 49% 29.97 in 10.0 mi NW 18.4 mph 26.5 mph N/A   Partly Cloudy
6:53 AM 53.1 °F 34.0 °F 48% 29.99 in 10.0 mi NW 17.3 mph - N/A   Clear
7:53 AM 55.0 °F 35.1 °F 47% 30.00 in 10.0 mi WNW 19.6 mph - N/A   Clear
8:53 AM 59.0 °F 35.1 °F 41% 30.01 in 10.0 mi NW 24.2 mph 31.1 mph N/A   Clear
9:53 AM 61.0 °F 34.0 °F 36% 30.02 in - NW 15.0 mph 26.5 mph 0.01 in   Clear
10:53 AM 66.9 °F 33.1 °F 28% 30.02 in 10.0 mi WNW 13.8 mph - N/A   Clear
11:53 AM 69.1 °F 30.9 °F 24% 30.02 in 10.0 mi NW 9.2 mph 19.6 mph N/A   Clear
12:53 PM 71.1 °F 30.0 °F 22% 30.01 in 10.0 mi WNW 10.4 mph - N/A   Scattered Clouds
1:53 PM 73.9 °F 30.0 °F 20% 30.00 in 10.0 mi West 13.8 mph 23.0 mph N/A   Partly Cloudy
2:53 PM 73.9 °F 30.0 °F 20% 29.99 in 10.0 mi WSW 8.1 mph - N/A   Clear
3:53 PM 75.9 °F 28.9 °F 18% 29.99 in 10.0 mi NW 19.6 mph 29.9 mph N/A   Scattered Clouds
4:53 PM 75.0 °F 28.9 °F 18% 29.99 in 10.0 mi Variable 5.8 mph - N/A   Scattered Clouds
5:53 PM 70.0 °F 37.0 °F 30% 29.99 in 10.0 mi SSE 4.6 mph - N/A   Clear
6:29 PM 68.0 °F 39.2 °F 35% 30.00 in 10.0 mi SE 5.8 mph - N/A Thunderstorm Clear
6:44 PM 68.0 °F 41.0 °F 37% 30.01 in 10.0 mi SSW 10.4 mph - N/A   Scattered Clouds
6:53 PM 68.0 °F 37.9 °F 33% 30.02 in 10.0 mi West 17.3 mph 23.0 mph N/A   Mostly Cloudy
7:11 PM 62.6 °F 44.6 °F 52% 30.02 in 10.0 mi NW 6.9 mph - 0.00 in Rain Light Rain
7:29 PM 62.6 °F 44.6 °F 52% 30.03 in 10.0 mi NW 6.9 mph - 0.00 in Thunderstorm Scattered Clouds
7:44 PM 62.6 °F 39.2 °F 42% 30.05 in 10.0 mi SW 13.8 mph 19.6 mph 0.00 in   Mostly Cloudy
7:53 PM 64.0 °F 37.0 °F 37% 30.03 in 10.0 mi West 4.6 mph - 0.00 in Rain Light Rain
8:53 PM 60.1 °F 39.0 °F 46% 30.05 in 10.0 mi WNW 24.2 mph 32.2 mph 0.00 in Rain Light Rain
9:01 PM 60.8 °F 37.4 °F 42% 30.07 in 10.0 mi WNW 24.2 mph 36.8 mph 0.00 in Rain Light Rain
9:53 PM 57.9 °F 39.0 °F 49% 30.08 in 10.0 mi NW 25.3 mph 32.2 mph 0.00 in   Overcast
10:53 PM 55.0 °F 41.0 °F 59% 30.12 in 10.0 mi WNW 18.4 mph 24.2 mph 0.01 in Rain Light Rain
11:53 PM 53.1 °F 43.0 °F 69% 30.14 in 10.0 mi WNW 13.8 mph - 0.01 in   Overcast